• In Belarus
  • List of Countries
  • For 7 days
  • Water Temperature
  • Satellite Maps
  • Weather Map
  • Weather Widgets
  • user-avatar
    Login

    Hourly Weather Gomel

    Today, 23 March, Saturday

    Time Temperature Precipitation Wind Pressure Humidity
    00:00 -1°C° 0 mm 6 mps 755 mmHg 62%
    01:00 -2°C° 0 mm 6 mps 755 mmHg 65%
    02:00 -1°C° 0 mm 3 mps 755 mmHg 73%
    03:00 -2°C° 0 mm 4 mps 755 mmHg 74%
    04:00 -2°C° 0 mm 5 mps 755 mmHg 75%
    05:00 -3°C° 0 mm 6 mps 755 mmHg 75%
    06:00 -3°C° 0 mm 6 mps 755 mmHg 74%
    07:00 -2°C° 0 mm 6 mps 756 mmHg 73%
    08:00 -1°C° 0 mm 7 mps 756 mmHg 71%
    09:00 -1°C° 0 mm 7 mps 756 mmHg 69%
    10:00 +1°C° 0 mm 6 mps 756 mmHg 67%
    11:00 +1°C° 0 mm 6 mps 756 mmHg 65%
    12:00 +2°C° 0 mm 6 mps 756 mmHg 63%
    13:00 +3°C° 0 mm 5 mps 756 mmHg 61%
    14:00 +3°C° 0 mm 5 mps 756 mmHg 59%
    15:00 +4°C° 0 mm 4 mps 756 mmHg 59%
    16:00 +4°C° 0 mm 4 mps 756 mmHg 60%
    17:00 +4°C° 0 mm 3 mps 756 mmHg 61%
    18:00 +3°C° 0 mm 3 mps 756 mmHg 66%
    19:00 +3°C° 0 mm 2 mps 756 mmHg 72%
    20:00 +2°C° 0 mm 2 mps 756 mmHg 77%
    21:00 +2°C° 0 mm 1 mps 756 mmHg 78%
    22:00 +2°C° 0 mm 1 mps 756 mmHg 79%
    23:00 +2°C° 0 mm 1 mps 756 mmHg 80%

    Tomorrow, 24 March, Sunday

    Time Temperature Precipitation Wind Pressure Humidity
    00:00 +2°C° 0 mm 1 mps 755 mmHg 80%
    01:00 +1°C° 0 mm 2 mps 755 mmHg 80%
    02:00 +1°C° 0 mm 2 mps 754 mmHg 80%
    03:00 0°C° 0 mm 3 mps 753 mmHg 78%
    04:00 0°C° 0 mm 3 mps 753 mmHg 76%
    05:00 0°C° 0 mm 4 mps 752 mmHg 74%
    06:00 0°C° 0.3 mm 4 mps 751 mmHg 72%
    07:00 0°C° 0.3 mm 4 mps 751 mmHg 71%
    08:00 +1°C° 0.3 mm 4 mps 751 mmHg 69%
    09:00 +3°C° 0.1 mm 4 mps 751 mmHg 71%
    10:00 +4°C° 0.1 mm 4 mps 750 mmHg 72%
    11:00 +5°C° 0.1 mm 4 mps 750 mmHg 74%
    12:00 +5°C° 0 mm 5 mps 750 mmHg 69%
    13:00 +6°C° 0 mm 5 mps 750 mmHg 63%
    14:00 +7°C° 0 mm 5 mps 750 mmHg 58%
    15:00 +7°C° 0 mm 5 mps 749 mmHg 58%
    16:00 +7°C° 0 mm 4 mps 749 mmHg 58%
    17:00 +7°C° 0 mm 3 mps 749 mmHg 59%
    18:00 +5°C° 0 mm 3 mps 750 mmHg 62%
    19:00 +5°C° 0 mm 3 mps 750 mmHg 64%
    20:00 +4°C° 0 mm 3 mps 750 mmHg 67%
    21:00 +4°C° 0 mm 2 mps 750 mmHg 69%
    22:00 +3°C° 0 mm 2 mps 750 mmHg 71%
    23:00 +2°C° 0 mm 2 mps 750 mmHg 73%

    Day after tomorrow, 25 March, Monday

    Time Temperature Precipitation Wind Pressure Humidity
    00:00 +2°C° 0 mm 2 mps 750 mmHg 74%
    01:00 +2°C° 0 mm 1 mps 750 mmHg 75%
    02:00 +2°C° 0 mm 1 mps 750 mmHg 75%
    03:00 +2°C° 0 mm 1 mps 750 mmHg 75%
    04:00 +1°C° 0 mm 1 mps 749 mmHg 74%
    05:00 0°C° 0 mm 0 mps 749 mmHg 74%
    06:00 +2°C° 0 mm 1 mps 749 mmHg 70%
    07:00 +3°C° 0 mm 1 mps 749 mmHg 66%
    08:00 +4°C° 0 mm 1 mps 749 mmHg 62%
    09:00 +5°C° 0 mm 1 mps 748 mmHg 57%
    10:00 +6°C° 0 mm 2 mps 748 mmHg 52%
    11:00 +7°C° 0 mm 2 mps 748 mmHg 48%
    12:00 +7°C° 0 mm 2 mps 747 mmHg 46%
    13:00 +8°C° 0 mm 2 mps 747 mmHg 44%
    14:00 +8°C° 0 mm 2 mps 746 mmHg 43%
    15:00 +8°C° 0 mm 2 mps 746 mmHg 45%
    16:00 +9°C° 0 mm 1 mps 746 mmHg 48%
    17:00 +8°C° 0 mm 1 mps 745 mmHg 50%
    18:00 +8°C° 0 mm 1 mps 745 mmHg 54%
    19:00 +7°C° 0 mm 1 mps 746 mmHg 58%
    20:00 +6°C° 0 mm 1 mps 746 mmHg 61%
    21:00 +5°C° 0.1 mm 1 mps 746 mmHg 64%
    22:00 +5°C° 0.1 mm 1 mps 746 mmHg 67%
    23:00 +5°C° 0.1 mm 1 mps 746 mmHg 70%

    26 March, Tuesday

    Time Temperature Precipitation Wind Pressure Humidity
    00:00 +4°C° 0 mm 1 mps 745 mmHg 73%
    01:00 +4°C° 0 mm 1 mps 745 mmHg 75%
    02:00 +4°C° 0 mm 1 mps 745 mmHg 78%
    03:00 +3°C° 0.2 mm 1 mps 745 mmHg 80%
    04:00 +3°C° 0.2 mm 1 mps 745 mmHg 83%
    05:00 +3°C° 0.2 mm 1 mps 745 mmHg 85%
    06:00 +2°C° 1.2 mm 2 mps 745 mmHg 86%
    07:00 +2°C° 1.2 mm 2 mps 745 mmHg 87%
    08:00 +1°C° 1.2 mm 3 mps 745 mmHg 87%
    09:00 +1°C° 0.1 mm 4 mps 745 mmHg 83%
    10:00 +2°C° 0.1 mm 5 mps 745 mmHg 78%
    11:00 +3°C° 0.1 mm 7 mps 745 mmHg 74%
    12:00 +2°C° 0 mm 7 mps 745 mmHg 67%
    13:00 +2°C° 0 mm 7 mps 745 mmHg 61%
    14:00 +1°C° 0 mm 8 mps 746 mmHg 55%
    15:00 +2°C° 0.1 mm 7 mps 746 mmHg 54%
    16:00 0°C° 0.1 mm 7 mps 746 mmHg 54%
    17:00 +1°C° 0.1 mm 6 mps 747 mmHg 53%
    18:00 0°C° 0.2 mm 5 mps 747 mmHg 57%
    19:00 -1°C° 0.2 mm 5 mps 747 mmHg 60%
    20:00 -1°C° 0.2 mm 4 mps 748 mmHg 64%
    21:00 -2°C° 0 mm 4 mps 748 mmHg 65%
    22:00 -2°C° 0 mm 4 mps 748 mmHg 66%
    23:00 -2°C° 0 mm 4 mps 748 mmHg 67%

    27 March, Wednesday

    Time Temperature Precipitation Wind Pressure Humidity
    00:00 -2°C° 0 mm 4 mps 748 mmHg 70%
    01:00 -3°C° 0 mm 4 mps 748 mmHg 72%
    02:00 -3°C° 0 mm 4 mps 748 mmHg 74%
    03:00 -3°C° 0 mm 4 mps 749 mmHg 73%
    04:00 -4°C° 0 mm 4 mps 749 mmHg 71%
    05:00 -4°C° 0 mm 4 mps 749 mmHg 69%
    06:00 -5°C° 0 mm 5 mps 750 mmHg 68%
    07:00 -4°C° 0 mm 7 mps 751 mmHg 67%
    08:00 -5°C° 0 mm 8 mps 751 mmHg 66%
    09:00 -4°C° 0 mm 8 mps 752 mmHg 62%
    10:00 -4°C° 0 mm 8 mps 752 mmHg 59%
    11:00 -2°C° 0 mm 8 mps 753 mmHg 55%
    12:00 -1°C° 0 mm 8 mps 753 mmHg 53%
    13:00 -1°C° 0 mm 7 mps 754 mmHg 50%
    14:00 0°C° 0 mm 7 mps 754 mmHg 48%
    15:00 0°C° 0 mm 7 mps 754 mmHg 48%
    16:00 +1°C° 0 mm 6 mps 755 mmHg 49%
    17:00 +1°C° 0 mm 5 mps 755 mmHg 49%
    18:00 0°C° 0 mm 5 mps 756 mmHg 54%
    19:00 -1°C° 0 mm 4 mps 757 mmHg 59%
    20:00 -1°C° 0 mm 3 mps 757 mmHg 63%
    21:00 -2°C° 0 mm 3 mps 758 mmHg 65%
    22:00 -2°C° 0 mm 3 mps 758 mmHg 67%
    23:00 -2°C° 0 mm 3 mps 758 mmHg 69%

    28 March, Thursday

    Time Temperature Precipitation Wind Pressure Humidity
    00:00 -2°C° 0 mm 3 mps 758 mmHg 68%
    01:00 -4°C° 0 mm 3 mps 759 mmHg 67%
    02:00 -4°C° 0 mm 3 mps 759 mmHg 67%
    03:00 -4°C° 0 mm 3 mps 759 mmHg 66%
    04:00 -4°C° 0 mm 3 mps 759 mmHg 65%
    05:00 -4°C° 0 mm 3 mps 759 mmHg 64%
    06:00 -2°C° 0 mm 3 mps 759 mmHg 61%
    07:00 -1°C° 0 mm 4 mps 759 mmHg 59%
    08:00 0°C° 0 mm 5 mps 759 mmHg 56%
    09:00 +1°C° 0 mm 5 mps 759 mmHg 50%
    10:00 +3°C° 0 mm 5 mps 759 mmHg 45%
    11:00 +5°C° 0 mm 5 mps 759 mmHg 39%
    12:00 +6°C° 0 mm 5 mps 759 mmHg 41%
    13:00 +7°C° 0 mm 5 mps 758 mmHg 43%
    14:00 +7°C° 0 mm 5 mps 758 mmHg 45%
    15:00 +7°C° 0 mm 5 mps 758 mmHg 52%
    16:00 +6°C° 0 mm 5 mps 757 mmHg 59%
    17:00 +6°C° 0 mm 5 mps 757 mmHg 66%
    18:00 +5°C° 0 mm 4 mps 757 mmHg 73%
    19:00 +4°C° 0 mm 4 mps 757 mmHg 79%
    20:00 +3°C° 0 mm 4 mps 757 mmHg 85%
    21:00 +1°C° 0 mm 4 mps 757 mmHg 87%
    22:00 +1°C° 0 mm 4 mps 757 mmHg 88%
    23:00 0°C° 0 mm 4 mps 757 mmHg 90%
    Show more